Location: Unspecified
(51.5147°N, 7.4673°E)
Time: 09:59:57
(UTC+01:00)

Vanguard 2 - Pass Details

Date: 25 February 2026
Orbit: 553 x 2896 km, 32.9° (Epoch: 7 March)

Event Time Altitude Azimuth Distance (km) Brightness Sun altitude
Rises 04:37:22 0° 229° (SW) 4,936 - -26.4°
Reaches altitude 10° 04:42:52 10° 209° (SSW) 3,393 - -25.6°
Exits shadow 04:46:04 14° 187° (S) 2,750 10.1 -25.1°
Maximum altitude 04:46:53 14° 180° (S) 2,653 10.1 -25.0°
Drops below altitude 10° 04:50:10 10° 148° (SSE) 2,647 10.4 -24.5°
Sets 04:53:33 0° 123° (ESE) 3,265 11.3 -24.0°
